Tracking 19644 objects as of 26-Apr-2019
HD Live streaming from Space Station
objects crossing your sky now

COSMOS 1249 COOLANT

Track COSMOS 1249 COOLANT now!
10-day predictions


NORAD ID: 26510
Int'l Code: 1981-021M
Perigee: 898.3 km
Apogee: 967.3 km
Inclination: 65.0 °
Period: 103.5 minutes
Semi major axis: 7303 km
RCS: 0.0055 m2 (small)
Launch date: March 5, 1981
Source: Commonwealth of Independent States (former USSR) (CIS)
Launch site: TYURATAM MISSILE AND SPACE COMPLEX (TTMTR)

Note: This is SATELLITE DEBRIS
aabbcc
Your satellite tracking list
Your tracking list is empty




NASA's NSSDC Master Catalog

Two Line Element Set (TLE):
1 26510U 81021M   19108.09571939 -.00000015 +00000-0 +59815-4 0  9997
2 26510 064.9661 348.7263 0047198 359.8308 073.8054 13.90850286287473
Source of the keplerian elements: AFSPC